weather.gov     
National Weather Service

Regional Weather Roundup
NWS Homepage
This page is being discontinued on March 12, 2014.
The same data is available at this site. Please update your bookmarks.
Thank you, and we apologize for the inconvenience.
Please send an email to SR-SRH.Webmaster@noaa.gov with any concerns.


Current Version
Previous Version:    01  02  03  04  05  06  07  08  09  10  11  12  13  14  15  16  17  18  19  20  21  22  23  24  25  26  
[Printable]
785
ASUS41 KALY 250210
RWRALY

NEW YORK STATE HOURLY WEATHER ROUNDUP
NATIONAL WEATHER SERVICE ALBANY NY
1000 PM EDT FRI OCT 24 2014

NOTE: "FAIR" INDICATES FEW OR NO CLOUDS BELOW 12,000 FEET WITH NO
SIGNIFICANT WEATHER AND/OR NO OBSTRUCTIONS TO VISIBILITY.

NYZ032-033-038>043-046>054-057>066-NYZ062>081-250300-
EAST


CITY           SKY/WX    TMP DP  RH WIND       PRES   REMARKS
ALBANY         CLOUDY    47  44  90 N6        29.87S
GLENS FALLS    CLOUDY    46  44  93 W3        29.86S
POUGHKEEPSIE   PTCLDY    47  44  90 CALM      29.84R
NEWBURGH       CLEAR     46  45  93 CALM      29.85R
MONTGOMERY     PTCLDY    56  36  47 NW12      29.83R
WHITE PLAINS   CLEAR     48  45  89 CALM      29.82R
ISLIP          PTCLDY    51  46  83 W5        29.80S
NEW YORK CITY  MOCLDY    57  46  66 SW3       29.82R
CENTRAL PARK   CLEAR     58  43  57 NW7       29.85R
$$

NYZ005>009-017-018-044>046-055-056-250300-
CENTRAL


CITY           SKY/WX    TMP DP  RH WIND       PRES   REMARKS
FULTON         PTCLDY    47  39  74 SW6       29.91S
SYRACUSE       MOCLDY    48  40  73 SW5       29.92R
ROME           PTCLDY    44  40  85 NW5       29.92S
ELMIRA         PTCLDY    43  34  70 CALM      29.93R
BINGHAMTON     MOCLDY    47  30  51 NW9       29.91R
MONTICELLO     PTCLDY    48  36  61 NW9       29.87S
$$

NYZ026>034-041>043-250300-
NORTH


CITY           SKY/WX    TMP DP  RH WIND       PRES   REMARKS
WATERTOWN      PTCLDY    49  43  80 S5        29.87F
FORT DRUM      NOT AVBL
MASSENA        CLOUDY    48  43  82 SW9       29.85S
SARANAC LAKE   CLOUDY    39  38  96 S6        29.84S WCI  35
PLATTSBURGH    PTCLDY    44  42  93 CALM      29.82F
$$

NYZ001>004-010>016-019>021-250300-
WEST


CITY           SKY/WX    TMP DP  RH WIND       PRES   REMARKS
NIAGARA FALLS  MOCLDY    49  43  80 SW9       29.94F
BUFFALO        PTCLDY    51  45  79 SW8       29.95F
DUNKIRK        CLOUDY    51  46  83 SW8       29.97F
JAMESTOWN      CLOUDY    48  39  71 W9        29.98F
WELLSVILLE     PTCLDY    44  35  70 W12       29.97S
ROCHESTER      PTCLDY    46  41  82 SW6       29.94S
PENN YAN       PTCLDY    50  29  44 SW9       29.94S
$$

             KEY
       WCI = WIND CHILL INDEX
       VSB = VISIBILITY
       HX  = HEAT INDEX
$$




U.S. Dept. of Commerce
NOAA National Weather Service
1325 East West Highway
Silver Spring, MD 20910
E-mail: w-nws.webmaster@noaa.gov
Page last modified: May 16, 2007
NATIONAL WEATHER SERVICE: for Safety, for Work, for Fun - FOR LIFE